Date,TemperatureHighF,TemperatureAvgF,TemperatureLowF,DewpointHighF,DewpointAvgF,DewpointLowF,HumidityHigh,HumidityAvg,HumidityLow,PressureMaxIn,PressureMinIn,WindSpeedMaxMPH,WindSpeedAvgMPH,GustSpeedMaxMPH,PrecipitationSumIn
2013-2-1,42,36,28,29,24,18,87,64,46,30.37,30.04,16,7,21,0.02
2013-2-2,46,31,21,28,21,15,85,67,41,30.49,30.33,11,5,15,0.00
2013-2-3,44,32,24,25,20,15,79,61,39,30.33,30.07,11,5,15,0.00
2013-2-4,42,37,33,29,23,16,68,57,46,30.07,29.96,13,4,18,0.00
2013-2-5,49,36,25,29,25,20,91,66,38,29.99,29.75,12,4,15,0.00
2013-2-6,41,32,22,29,21,15,84,64,41,30.13,29.85,12,4,19,0.00
2013-2-7,41,32,23,22,18,14,77,55,42,30.11,29.92,20,11,25,0.00
2013-2-8,37,25,14,25,18,10,90,75,57,30.07,29.96,11,3,16,0.00
2013-2-9,35,25,17,23,19,13,92,78,49,30.13,29.92,12,3,17,0.00
2013-2-10,35,21,8,25,16,3,92,80,58,30.28,30.13,8,1,13,0.11
2013-2-11,31,17,8,22,11,3,92,77,64,30.33,30.24,11,4,13,0.00
2013-2-12,39,31,19,28,23,15,84,70,59,30.32,30.14,14,6,19,0.00
2013-2-13,41,36,33,27,23,16,73,58,45,30.19,30.03,15,6,26,0.00
2013-2-14,37,32,23,25,20,18,85,63,47,30.45,30.19,17,9,25,0.00
2013-2-15,43,32,22,26,22,17,92,70,48,30.51,30.35,7,1,11,0.00
2013-2-16,50,36,24,29,24,18,88,63,41,30.35,29.79,24,7,28,0.00
2013-2-17,33,30,23,28,21,15,87,69,56,30.10,29.79,16,5,21,0.00
2013-2-18,38,29,22,16,13,10,73,52,33,30.15,29.91,19,9,26,0.00
2013-2-19,41,31,20,21,15,9,92,52,36,29.91,29.65,19,11,26,0.00
2013-2-20,33,24,16,26,19,12,90,80,59,30.02,29.78,10,2,14,0.03
2013-2-21,33,22,8,18,12,4,84,65,37,30.13,30.01,11,5,18,0.00
2013-2-22,40,31,24,24,18,14,72,59,42,30.08,29.70,16,9,27,0.00
2013-2-23,34,29,19,26,18,9,85,64,38,30.17,29.62,14,6,20,0.00
2013-2-24,37,25,10,15,11,5,82,57,36,30.35,30.17,16,6,20,0.00
2013-2-25,36,28,20,22,16,12,75,61,45,30.22,29.93,15,7,21,0.00
2013-2-26,38,27,19,16,13,10,75,58,36,30.34,30.07,15,5,21,0.00
2013-2-27,43,27,14,16,12,8,81,55,30,30.39,30.28,14,5,19,0.00
2013-2-28,45,34,16,28,21,11,83,60,44,30.40,30.32,9,4,14,0.00